Change the Weather History Date:

Friday, July 5, 2013

  Actual Average Record
Temperature  
Mean Temperature 81 °F -  
Max Temperature 84 °F 84 °F 101 °F (1990)
Min Temperature 78 °F 69 °F 59 °F (1952)
Cooling Degree Days 16    
Growing Degree Days 31 (Base 50)    
Moisture  
Dew Point 74 °F    
Average Humidity 79    
Maximum Humidity 89    
Minimum Humidity 74    
Precipitation  
Precipitation 0.00 in - - ()
Sea Level Pressure  
Sea Level Pressure 30.24 in    
Wind  
Wind Speed 11 mph (SSE)    
Max Wind Speed 17 mph    
Max Gust Speed -    
Visibility 10 miles    
Events      
Averages and records for this station are not official NWS values.
T = Trace of Precipitation, MM = Missing Value Source: NWS Daily Summary

Daily Weather History Graph

Daily Weather History Graph

Search for Another Location

Airport or City:

Trip Planner

Search our weather history database for the weather conditions in past years. The results will help you decide how hot, cold, wet, or windy it might be!

Date:

Astronomy

Jul. 05, 2013 Rise Set
Actual Time 6:10 AM EDT 8:29 PM EDT
Civil Twilight 5:42 AM EDT 8:58 PM EDT
Nautical Twilight 5:06 AM EDT 9:33 PM EDT
Astronomical Twilight 4:28 AM EDT 10:12 PM EDT
Moon 4:06 AM EDT (7/5) 6:25 PM EDT (7/5)
Length of Visible Light 15h 16m
Length of Day
14h 18m
Waning Crescent, 6% of the Moon is Illuminated
Jul 5
Waning Crescent
Jul 8
New
Jul 15
First Quarter
Jul 22
Full
Jul 29
Last Quarter

Hourly Weather History & Observations

Time (EDT) Temp. Heat Index Dew Point Humidity Pressure Visibility Wind Dir Wind Speed Gust Speed Precip Events Conditions
12:15 AM 80.6 °F 84.6 °F 71.6 °F 74% 30.26 in 10.0 mi SSE 13.8 mph - N/A   Clear
12:35 AM 80.6 °F 85.4 °F 73.4 °F 79% 30.25 in 10.0 mi South 8.1 mph - N/A   Partly Cloudy
12:55 AM 80.6 °F 85.4 °F 73.4 °F 79% 30.25 in 10.0 mi SSE 10.4 mph - N/A   Clear
1:15 AM 80.6 °F 85.4 °F 73.4 °F 79% 30.25 in 10.0 mi SSE 11.5 mph - N/A   Partly Cloudy
1:35 AM 80.6 °F 85.4 °F 73.4 °F 79% 30.25 in 10.0 mi SSE 10.4 mph - N/A   Partly Cloudy
1:55 AM 80.6 °F 85.4 °F 73.4 °F 79% 30.24 in 10.0 mi SSE 11.5 mph - N/A   Mostly Cloudy
2:15 AM 80.6 °F 85.4 °F 73.4 °F 79% 30.24 in 10.0 mi SSE 9.2 mph - N/A   Mostly Cloudy
2:35 AM 78.8 °F - 73.4 °F 83% 30.24 in 10.0 mi SSE 12.7 mph - N/A   Mostly Cloudy
2:55 AM 78.8 °F - 73.4 °F 83% 30.23 in 10.0 mi SSE 11.5 mph - N/A   Partly Cloudy
3:15 AM 78.8 °F - 73.4 °F 83% 30.23 in 10.0 mi SE 9.2 mph - N/A   Scattered Clouds
3:35 AM 78.8 °F - 73.4 °F 83% 30.23 in 10.0 mi SSE 10.4 mph - N/A   Scattered Clouds
3:55 AM 78.8 °F - 73.4 °F 83% 30.23 in 10.0 mi SSE 10.4 mph - N/A   Scattered Clouds
4:15 AM 78.8 °F - 73.4 °F 83% 30.22 in 10.0 mi SE 10.4 mph - N/A   Partly Cloudy
4:35 AM 78.8 °F - 73.4 °F 83% 30.22 in 10.0 mi SSE 10.4 mph - N/A   Partly Cloudy
4:55 AM 78.8 °F - 73.4 °F 83% 30.22 in 10.0 mi SE 8.1 mph - N/A   Partly Cloudy
5:15 AM 78.8 °F - 73.4 °F 83% 30.23 in 10.0 mi SE 9.2 mph - N/A   Scattered Clouds
5:35 AM 78.8 °F - 73.4 °F 83% 30.23 in 10.0 mi SE 9.2 mph - N/A   Mostly Cloudy
6:45 AM 78.8 °F - 75.2 °F 89% 30.24 in 10.0 mi SSE 8.1 mph - N/A   Mostly Cloudy
7:45 AM 80.6 °F 86.2 °F 75.2 °F 84% 30.25 in 10.0 mi SSE 8.1 mph - N/A   Mostly Cloudy
8:45 AM 82.4 °F 89.5 °F 75.2 °F 79% 30.26 in 10.0 mi SSE 9.2 mph - N/A   Mostly Cloudy
9:50 AM 84.2 °F 92.3 °F 75.2 °F 74% 30.26 in 10.0 mi SSE 9.2 mph - N/A   Mostly Cloudy
10:45 AM 84.2 °F 92.3 °F 75.2 °F 74% 30.27 in 10.0 mi SSE 9.2 mph - N/A   Mostly Cloudy
11:45 AM 84.2 °F 94.1 °F 77.0 °F 79% 30.27 in 10.0 mi SSE 11.5 mph - N/A   Mostly Cloudy
1:45 PM 82.4 °F 89.5 °F 75.2 °F 79% 30.26 in 10.0 mi SSE 11.5 mph - N/A   Mostly Cloudy
2:45 PM 84.2 °F 92.3 °F 75.2 °F 74% 30.25 in 10.0 mi SSE 11.5 mph - N/A   Scattered Clouds
3:16 PM 84.2 °F 92.3 °F 75.2 °F 74% 30.24 in 10.0 mi SSE 9.2 mph - N/A   Mostly Cloudy
3:50 PM 84.2 °F 92.3 °F 75.2 °F 74% 30.23 in 10.0 mi South 11.5 mph - N/A   Mostly Cloudy
4:45 PM 84.2 °F 92.3 °F 75.2 °F 74% 30.21 in 10.0 mi SSE 17.3 mph - N/A   Mostly Cloudy
5:45 PM 84.2 °F 92.3 °F 75.2 °F 74% 30.20 in 10.0 mi South 15.0 mph - N/A   Mostly Cloudy
6:45 PM 82.4 °F 88.2 °F 73.4 °F 74% 30.20 in 10.0 mi SSE 16.1 mph - N/A   Mostly Cloudy
7:45 PM 80.6 °F 85.4 °F 73.4 °F 79% 30.21 in 10.0 mi SSE 15.0 mph - N/A   Scattered Clouds
8:45 PM 80.6 °F 84.6 °F 71.6 °F 74% 30.22 in 10.0 mi South 11.5 mph - N/A   Scattered Clouds
9:45 PM 80.6 °F 84.6 °F 71.6 °F 74% 30.24 in 10.0 mi South 11.5 mph - N/A   Scattered Clouds
10:45 PM 80.6 °F 84.6 °F 71.6 °F 74% 30.25 in 10.0 mi South 11.5 mph - N/A   Scattered Clouds
11:15 PM 80.6 °F 85.4 °F 73.4 °F 79% 30.25 in 10.0 mi South 9.2 mph - N/A   Scattered Clouds
11:35 PM 80.6 °F 84.6 °F 71.6 °F 74% 30.26 in 10.0 mi SSE 9.2 mph - N/A   Partly Cloudy
11:55 PM 80.6 °F 84.6 °F 71.6 °F 74% 30.26 in 10.0 mi SSE 10.4 mph - N/A   Partly Cloudy